Weather in Yershiposi

Russia / Chuvash Republic     55°24′25″N   47°00′27″E
temp.,
°C
wind,
m/s
gust,
m/s
humid.,
%
clouds,
%
prec.,
mm/h
press.,
hPa
HPBL,
m
8 march, mon
mon800:00−6ssw51494100 0.8 994665
03:00−4s51296100 2.1 991635
06:00−7w6139073 1.4 992398
09:00−7wsw7129280 1.4 996678
12:00−5wsw7984100 0.2 9981040
15:00−5wsw578291 0.2 998867
18:00−10wnw129198 0.0 99921
21:00−9wnw389299 0.1 1001224
9 march, tue
tue900:00−13w479665 0.0 1004108
03:00−16wsw449740 0.0 100769
06:00−18w349984 0.0 100865
09:00−14w349492 0.1 1009234
12:00−10wnw338897 0.1 1010473
15:00−11nnw359099 0.2 1011506
18:00−13nw359699 0.1 1012122
21:00−14nnw489697 0.2 1013236
10 march, wed
wed1000:00−17nnw499791 0.1 1014207
03:00−19nnw599792 0.1 1015264
06:00−22nnw51097100 0.1 1016279
09:00−23nnw599599 0.1 1018336
12:00−21nnw699396 0.0 1020451
15:00−19nnw698998 0.0 1021577
18:00−22nnw499460 0.0 1022145
21:00−23nnw479530 0.0 1024104
11 march, thu
thu1100:00−25nw44980 0.0 102577
03:00−25nw479926 0.0 102694
06:00−25wnw479843 0.0 1027125
09:00−21wnw6109539 0.0 1027267
12:00−15wnw7118789 0.0 1026371
15:00−12wnw6119193 0.1 1026498
18:00−13wnw499593 0.0 1027167
21:00−15wnw499774 0.0 1029143
12 march, fri
fri1200:00−17wnw479728 0.0 103089
03:00−18w349715 0.0 103053
06:00−19w44990 0.0 103275
09:00−15w47937 0.0 1033239
12:00−11w57860 0.0 1033420
15:00−10wsw58830 0.0 1032517
18:00−15wsw45920 0.0 103280
21:00−17sw47930 0.0 1033110